EW9078 Weather Reports


Display with metric or nautical units.
time (UTC)temp
F
wind
direction
speed
MPH
gust
MPH
rain 1hr
in
rain 24hr
in
rain mn
in
humidity
%
barometer
mb
20260504081505 72 0 0.0 0.0 0.00 0.00 0.00 43 996.9
20260504081005 72 0 0.0 0.0 0.00 0.00 0.00 43 997.1
20260504080505 72 0 0.0 0.0 0.00 0.00 0.00 43 996.9
20260504050505 77 298 2.0 15.0 0.00 0.00 0.00 35 997.6
20260504050005 77 296 2.0 12.0 0.00 0.00 0.00 35 997.6
20260504045505 77 292 1.0 7.0 0.00 0.00 0.00 35 997.7
20260504044505 77 295 1.0 9.0 0.00 0.00 0.00 36 997.4
20260504044005 77 302 1.0 9.0 0.00 0.00 0.00 35 997.3
20260504043505 77 290 1.0 10.0 0.00 0.00 0.00 36 997.5
20260504043007 77 287 1.0 10.0 0.00 0.00 0.00 37 997.6
20260504042506 78 293 1.0 9.0 0.00 0.00 0.00 38 997.7
20260504042005 78 286 1.0 10.0 0.00 0.00 0.00 37 997.4
20260504041505 78 284 1.0 10.0 0.00 0.00 0.00 37 997.2
20260504041005 78 310 3.0 18.0 0.00 0.00 0.00 36 997.2
20260504040005 78 294 3.0 14.0 0.00 0.00 0.00 35 997.2
20260504035505 78 292 3.0 17.0 0.00 0.00 0.00 35 997.2
20260504035006 78 295 3.0 17.0 0.00 0.00 0.00 34 997.1
20260504034506 78 296 3.0 16.0 0.00 0.00 0.00 35 997.1
20260504034006 79 301 5.0 16.0 0.00 0.00 0.00 34 997.1
20260504033506 79 308 3.0 17.0 0.00 0.00 0.00 32 996.8
20260504033006 79 314 2.0 17.0 0.00 0.00 0.00 34 996.7
20260504032505 79 311 2.0 14.0 0.00 0.00 0.00 35 996.6
20260504032005 79 300 3.0 14.0 0.00 0.00 0.00 35 996.5
20260504031006 79 302 3.0 13.0 0.00 0.00 0.00 35 996.3
20260504030506 79 297 5.0 19.0 0.00 0.00 0.00 35 996.2
20260504030006 79 297 5.0 19.0 0.00 0.00 0.00 34 996.1
20260504025505 79 307 5.0 21.0 0.00 0.00 0.00 35 996.1
20260504024505 79 303 5.0 18.0 0.00 0.00 0.00 35 996.0
20260504024005 80 310 5.0 18.0 0.00 0.00 0.00 35 995.8
20260504023505 80 304 6.0 19.0 0.00 0.00 0.00 35 995.7
20260504023005 80 296 5.0 19.0 0.00 0.00 0.00 34 995.6
20260504022505 80 302 4.0 18.0 0.00 0.00 0.00 33 995.5
20260504021506 80 297 5.0 20.0 0.00 0.00 0.00 35 995.6
20260504021006 80 301 4.0 14.0 0.00 0.00 0.00 36 995.6
20260504020005 80 311 4.0 20.0 0.00 0.00 0.00 33 995.5
20260504015505 80 296 4.0 18.0 0.00 0.00 0.00 34 995.4
20260504013505 80 285 7.0 20.0 0.00 0.00 0.00 34 995.2
20260504013005 81 294 7.0 20.0 0.00 0.00 0.00 35 995.4
20260504012506 81 303 6.0 20.0 0.00 0.00 0.00 35 995.2
20260504011005 81 301 7.0 21.0 0.00 0.00 0.00 35 995.1
20260504010005 82 304 3.0 19.0 0.00 0.00 0.00 35 994.8
20260504004505 82 315 5.0 19.0 0.00 0.00 0.00 35 995.0
20260504004005 82 314 5.0 22.0 0.00 0.00 0.00 34 995.0
20260504003006 82 301 5.0 20.0 0.00 0.00 0.00 38 995.1
20260504002006 83 298 7.0 21.0 0.00 0.00 0.00 36 995.0
20260504001505 83 302 6.0 20.0 0.00 0.00 0.00 35 994.6
20260504001005 84 298 5.0 19.0 0.00 0.00 0.00 33 994.5
20260504000505 84 297 4.0 17.0 0.00 0.00 0.00 32 994.3
20260504000005 84 300 4.0 18.0 0.00 0.00 0.00 31 994.4
20260503235505 84 304 6.0 20.0 0.00 0.00 0.00 31 994.6
20260503235005 84 309 7.0 20.0 0.00 0.00 0.00 31 994.5
20260503234505 84 305 7.0 19.0 0.00 0.00 0.00 30 994.5
20260503234005 84 307 7.0 18.0 0.00 0.00 0.00 30 994.5
20260503233505 84 308 8.0 20.0 0.00 0.00 0.00 29 994.4
20260503233005 84 304 8.0 20.0 0.00 0.00 0.00 29 994.5
20260503232006 85 309 6.0 19.0 0.00 0.00 0.00 28 994.7
20260503231005 85 301 7.0 20.0 0.00 0.00 0.00 28 995.0
20260503230505 86 309 7.0 20.0 0.00 0.00 0.00 27 995.0
20260503230006 87 299 7.0 21.0 0.00 0.00 0.00 26 995.1
20260503225505 87 295 7.0 21.0 0.00 0.00 0.00 23 995.1
20260503225005 87 299 8.0 23.0 0.00 0.00 0.00 23 995.1
20260503224505 88 292 7.0 23.0 0.00 0.00 0.00 22 995.1
20260503224005 88 297 5.0 19.0 0.00 0.00 0.00 20 995.0
20260503223505 88 301 4.0 14.0 0.00 0.00 0.00 19 994.9
20260503223005 88 294 4.0 16.0 0.00 0.00 0.00 19 994.6
20260503221505 89 299 4.0 15.0 0.00 0.00 0.00 16 995.0
20260503221005 90 282 3.0 14.0 0.00 0.00 0.00 15 995.0
20260503220505 90 279 3.0 16.0 0.00 0.00 0.00 13 995.1
20260503220005 90 273 3.0 16.0 0.00 0.00 0.00 13 995.1
20260503215505 90 251 4.0 12.0 0.00 0.00 0.00 13 995.5
20260503215006 90 270 4.0 12.0 0.00 0.00 0.00 12 995.6
20260503214505 91 290 4.0 15.0 0.00 0.00 0.00 12 995.6
20260503214005 91 279 4.0 15.0 0.00 0.00 0.00 12 995.6
20260503213505 91 281 3.0 15.0 0.00 0.00 0.00 12 995.6
20260503213006 91 233 4.0 15.0 0.00 0.00 0.00 12 995.6
20260503212505 91 224 3.0 15.0 0.00 0.00 0.00 12 995.6
20260503211505 91 285 3.0 14.0 0.00 0.00 0.00 12 995.7
20260503211005 90 251 7.0 20.0 0.00 0.00 0.00 12 995.8
20260503210505 91 230 6.0 21.0 0.00 0.00 0.00 12 995.7
20260503210006 91 228 5.0 21.0 0.00 0.00 0.00 12 995.8
20260503205505 91 213 8.0 19.0 0.00 0.00 0.00 12 995.8
20260503205005 91 210 8.0 23.0 0.00 0.00 0.00 13 995.7
20260503204506 91 222 7.0 23.0 0.00 0.00 0.00 11 995.6
20260503204004 91 214 7.0 21.0 0.00 0.00 0.00 11 995.6
20260503203505 91 216 6.0 21.0 0.00 0.00 0.00 12 995.6
20260503203005 91 248 4.0 17.0 0.00 0.00 0.00 12 995.5
20260503202505 91 237 5.0 11.0 0.00 0.00 0.00 14 995.4
20260503202006 91 227 5.0 15.0 0.00 0.00 0.00 13 995.5
20260503201005 91 255 4.0 15.0 0.00 0.00 0.00 13 995.8
20260503200505 91 244 4.0 15.0 0.00 0.00 0.00 13 996.0
20260503200005 90 229 6.0 19.0 0.00 0.00 0.00 14 996.1
20260503195505 91 225 8.0 20.0 0.00 0.00 0.00 13 996.0
20260503195005 91 221 8.0 20.0 0.00 0.00 0.00 14 996.0
20260503194505 91 217 8.0 28.0 0.00 0.00 0.00 14 996.1
20260503194006 91 206 5.0 28.0 0.00 0.00 0.00 14 996.1
20260503193505 91 190 5.0 18.0 0.00 0.00 0.00 13 996.1
20260503193005 91 219 5.0 12.0 0.00 0.00 0.00 14 996.1
20260503192505 90 237 5.0 12.0 0.00 0.00 0.00 14 996.1
20260503192005 90 215 5.0 12.0 0.00 0.00 0.00 14 996.4
20260503191006 90 218 6.0 19.0 0.00 0.00 0.00 14 996.6
20260503190504 89 210 5.0 19.0 0.00 0.00 0.00 13 996.6
20260503190004 90 202 3.0 14.0 0.00 0.00 0.00 13 996.6
20260503185506 89 193 3.0 9.0 0.00 0.00 0.00 13 996.6
20260503185005 89 181 3.0 15.0 0.00 0.00 0.00 14 996.7
20260503184505 88 188 3.0 15.0 0.00 0.00 0.00 14 997.1
20260503184005 88 191 2.0 13.0 0.00 0.00 0.00 14 997.1
20260503183505 88 211 2.0 13.0 0.00 0.00 0.00 15 997.2
20260503182505 87 167 2.0 9.0 0.00 0.00 0.00 15 997.3
20260503181506 88 200 2.0 9.0 0.00 0.00 0.00 15 997.4
20260503181005 88 196 2.0 10.0 0.00 0.00 0.00 15 997.6
20260503180505 87 207 4.0 14.0 0.00 0.00 0.00 14 997.7
20260503175504 87 170 2.0 11.0 0.00 0.00 0.00 15 997.7
20260503175004 87 160 1.0 7.0 0.00 0.00 0.00 16 997.6
20260503174505 87 167 1.0 7.0 0.00 0.00 0.00 17 997.5
20260503173505 86 224 1.0 7.0 0.00 0.00 0.00 17 997.7
20260503173005 86 236 2.0 12.0 0.00 0.00 0.00 17 997.7
20260503172505 85 230 2.0 12.0 0.00 0.00 0.00 17 997.7
20260503171505 84 219 1.0 8.0 0.00 0.00 0.00 19 997.7
20260503171004 84 207 1.0 8.0 0.00 0.00 0.00 19 997.7
20260503170504 84 172 2.0 6.0 0.00 0.00 0.00 21 997.7
20260503151005 75 347 0.0 1.0 0.00 0.00 0.00 28 997.6
20260503150505 75 347 0.0 1.0 0.00 0.00 0.00 30 997.3
20260503131005 69 218 0.0 2.0 0.00 0.00 0.00 38 996.1
20260503130505 69 220 0.0 2.0 0.00 0.00 0.00 38 996.0
20260503090504 75 0 0.0 0.0 0.00 0.00 0.00 24 996.0